TimeEDT,TemperatureF,Dew PointF,Humidity,Sea Level PressureIn,VisibilityMPH,Wind Direction,Wind SpeedMPH,Gust SpeedMPH,PrecipitationIn,Events,Conditions,WindDirDegrees,DateUTC
12:15 AM,40.1,36.7,88,30.04,10.0,Calm,Calm,-,N/A,,Clear,0,2013-10-21 04:15:00
12:35 AM,40.1,36.5,87,30.04,10.0,Calm,Calm,-,N/A,,Clear,0,2013-10-21 04:35:00
12:55 AM,39.6,36.5,89,30.04,10.0,Calm,Calm,-,N/A,,Clear,0,2013-10-21 04:55:00
1:15 AM,38.8,36.3,91,30.04,10.0,Calm,Calm,-,N/A,,Clear,0,2013-10-21 05:15:00
1:35 AM,37.6,35.6,93,30.04,10.0,Calm,Calm,-,N/A,,Clear,0,2013-10-21 05:35:00
1:55 AM,39.2,36.1,89,30.04,10.0,Calm,Calm,-,N/A,,Clear,0,2013-10-21 05:55:00
2:15 AM,38.8,36.1,90,30.03,10.0,Calm,Calm,-,N/A,,Clear,0,2013-10-21 06:15:00
2:35 AM,37.6,35.2,91,30.04,10.0,Calm,Calm,-,N/A,,Clear,0,2013-10-21 06:35:00
2:55 AM,36.7,34.9,93,30.04,10.0,Calm,Calm,-,N/A,,Clear,0,2013-10-21 06:55:00
3:15 AM,37.0,35.4,94,30.04,10.0,Calm,Calm,-,N/A,,Clear,0,2013-10-21 07:15:00
3:35 AM,37.0,35.6,95,30.03,10.0,Calm,Calm,-,N/A,,Clear,0,2013-10-21 07:35:00
3:55 AM,36.5,34.9,94,30.04,10.0,Calm,Calm,-,N/A,,Clear,0,2013-10-21 07:55:00
4:15 AM,37.0,35.4,94,30.04,10.0,Calm,Calm,-,N/A,,Clear,0,2013-10-21 08:15:00
4:35 AM,35.4,34.0,94,30.04,10.0,West,3.5,-,N/A,,Clear,270,2013-10-21 08:35:00
4:55 AM,35.1,33.8,95,30.04,10.0,Calm,Calm,-,N/A,,Clear,0,2013-10-21 08:55:00
5:15 AM,35.4,34.2,95,30.04,10.0,Calm,Calm,-,N/A,,Clear,0,2013-10-21 09:15:00
5:35 AM,34.7,33.4,95,30.04,10.0,Calm,Calm,-,N/A,,Clear,0,2013-10-21 09:35:00
5:55 AM,34.9,33.8,96,30.05,10.0,Calm,Calm,-,N/A,,Clear,0,2013-10-21 09:55:00
6:15 AM,34.7,33.3,94,30.06,10.0,Calm,Calm,-,N/A,,Clear,0,2013-10-21 10:15:00
6:35 AM,34.3,33.1,95,30.06,10.0,Calm,Calm,-,N/A,,Clear,0,2013-10-21 10:35:00
6:55 AM,34.7,33.6,96,30.06,7.0,Calm,Calm,-,N/A,Snow,Light Snow,0,2013-10-21 10:55:00
7:15 AM,34.3,33.3,96,30.06,7.0,Calm,Calm,-,N/A,Snow,Light Snow,0,2013-10-21 11:15:00
7:35 AM,34.3,33.3,96,30.06,0.8,Calm,Calm,-,N/A,Snow,Light Snow,0,2013-10-21 11:35:00
7:55 AM,33.6,32.4,95,30.06,10.0,Calm,Calm,-,N/A,,Clear,0,2013-10-21 11:55:00
8:15 AM,33.8,32.9,96,30.06,10.0,Calm,Calm,-,N/A,,Clear,0,2013-10-21 12:15:00
8:35 AM,34.9,34.0,97,30.06,10.0,Calm,Calm,-,N/A,,Clear,0,2013-10-21 12:35:00
8:55 AM,38.3,37.0,95,30.06,10.0,Calm,Calm,-,N/A,,Clear,0,2013-10-21 12:55:00
9:15 AM,42.1,39.7,91,30.07,10.0,Calm,Calm,-,N/A,,Clear,0,2013-10-21 13:15:00
9:35 AM,45.1,39.6,81,30.07,10.0,SSW,4.6,-,N/A,,Clear,210,2013-10-21 13:35:00
9:55 AM,47.1,39.9,76,30.06,10.0,SSW,3.5,-,N/A,,Clear,210,2013-10-21 13:55:00
10:15 AM,49.1,40.1,71,30.06,10.0,South,5.8,-,N/A,,Clear,190,2013-10-21 14:15:00
10:35 AM,51.3,41.2,68,30.05,10.0,South,4.6,-,N/A,,Clear,190,2013-10-21 14:35:00
10:55 AM,53.8,41.4,63,30.06,10.0,SSW,4.6,-,N/A,,Clear,200,2013-10-21 14:55:00
11:15 AM,55.6,41.9,60,30.04,10.0,SSW,3.5,-,N/A,,Clear,210,2013-10-21 15:15:00
11:35 AM,57.6,41.0,54,30.04,10.0,WSW,8.1,-,N/A,,Clear,240,2013-10-21 15:35:00
11:55 AM,58.8,41.5,53,30.04,10.0,SSW,6.9,-,N/A,,Clear,210,2013-10-21 15:55:00
12:15 PM,60.6,41.4,49,30.03,10.0,SW,4.6,-,N/A,,Clear,220,2013-10-21 16:15:00
12:35 PM,61.9,39.7,44,30.02,10.0,SSW,5.8,-,N/A,,Clear,210,2013-10-21 16:35:00
12:55 PM,62.4,39.0,42,30.01,10.0,SSW,10.4,-,N/A,,Clear,210,2013-10-21 16:55:00
1:35 PM,64.2,36.5,36,29.99,10.0,SW,10.4,-,N/A,,Clear,220,2013-10-21 17:35:00
1:55 PM,64.8,35.6,34,29.98,10.0,SSW,12.7,18.4,N/A,,Clear,200,2013-10-21 17:55:00
2:15 PM,64.8,34.3,32,29.97,10.0,SSW,6.9,16.1,N/A,,Clear,200,2013-10-21 18:15:00
2:35 PM,65.1,34.7,32,29.96,10.0,SSW,6.9,17.3,N/A,,Clear,200,2013-10-21 18:35:00
2:55 PM,65.7,34.5,31,29.95,10.0,SW,11.5,18.4,N/A,,Clear,230,2013-10-21 18:55:00
3:15 PM,66.2,36.0,33,29.95,10.0,SSW,10.4,-,N/A,,Clear,210,2013-10-21 19:15:00
3:35 PM,66.2,36.7,34,29.94,10.0,WSW,15.0,19.6,N/A,,Clear,250,2013-10-21 19:35:00
3:55 PM,65.8,36.3,34,29.94,10.0,SSW,8.1,-,N/A,,Clear,210,2013-10-21 19:55:00
4:15 PM,66.2,37.6,35,29.93,10.0,SW,9.2,-,N/A,,Clear,220,2013-10-21 20:15:00
4:35 PM,66.2,37.2,34,29.92,10.0,SSW,10.4,-,N/A,,Clear,200,2013-10-21 20:35:00
4:55 PM,65.7,37.6,36,29.91,10.0,South,9.2,-,N/A,,Clear,190,2013-10-21 20:55:00
5:15 PM,64.9,37.2,36,29.91,10.0,SSW,8.1,-,N/A,,Clear,200,2013-10-21 21:15:00
5:35 PM,63.9,37.0,37,29.92,10.0,South,5.8,-,N/A,,Scattered Clouds,190,2013-10-21 21:35:00
5:55 PM,63.5,37.4,38,29.92,10.0,SW,4.6,-,N/A,,Mostly Cloudy,220,2013-10-21 21:55:00
6:15 PM,62.6,37.4,39,29.92,10.0,SSW,3.5,-,N/A,,Mostly Cloudy,200,2013-10-21 22:15:00
6:35 PM,61.3,37.8,42,29.93,10.0,SSW,3.5,-,N/A,,Mostly Cloudy,210,2013-10-21 22:35:00
6:55 PM,61.0,37.8,42,29.93,10.0,SSW,4.6,-,N/A,,Mostly Cloudy,200,2013-10-21 22:55:00
7:15 PM,60.4,37.6,43,29.92,10.0,South,3.5,-,N/A,,Mostly Cloudy,190,2013-10-21 23:15:00
7:35 PM,60.3,37.6,43,29.92,10.0,SSW,3.5,-,N/A,,Overcast,200,2013-10-21 23:35:00
7:55 PM,60.1,37.8,44,29.92,10.0,Calm,Calm,-,N/A,,Overcast,0,2013-10-21 23:55:00
8:15 PM,58.3,39.0,49,29.91,10.0,Calm,Calm,-,N/A,,Overcast,0,2013-10-22 00:15:00
8:35 PM,55.4,40.8,58,29.91,10.0,Calm,Calm,-,N/A,,Overcast,0,2013-10-22 00:35:00
8:55 PM,55.4,42.3,61,29.91,10.0,Calm,Calm,-,N/A,,Overcast,0,2013-10-22 00:55:00
9:15 PM,55.4,41.5,60,29.91,10.0,Calm,Calm,-,N/A,,Overcast,0,2013-10-22 01:15:00
9:35 PM,55.8,41.5,59,29.91,10.0,Calm,Calm,-,N/A,,Overcast,0,2013-10-22 01:35:00
9:55 PM,55.6,42.8,62,29.91,10.0,Calm,Calm,-,N/A,,Overcast,0,2013-10-22 01:55:00
10:15 PM,56.1,42.1,59,29.91,10.0,Calm,Calm,-,N/A,,Overcast,0,2013-10-22 02:15:00
10:35 PM,56.7,40.8,55,29.91,10.0,Calm,Calm,-,N/A,,Overcast,0,2013-10-22 02:35:00
10:55 PM,56.3,41.2,57,29.91,10.0,Calm,Calm,-,N/A,,Overcast,0,2013-10-22 02:55:00
11:15 PM,57.2,41.0,55,29.90,10.0,SW,4.6,-,N/A,,Overcast,220,2013-10-22 03:15:00
11:35 PM,58.1,40.1,51,29.90,10.0,SW,5.8,-,N/A,,Overcast,220,2013-10-22 03:35:00
11:55 PM,58.1,39.9,51,29.89,10.0,SSW,5.8,-,N/A,,Overcast,210,2013-10-22 03:55:00